Home > Weather > Pamplona > Past weeks

Flag for Spain Weather for the Past 2 Weeks in Pamplona, Spain

Now
54 °F

Light rain. Broken clouds.


Feels Like: 53 °F
Forecast: 48 / 56 °F
Wind: 5 mph from Northwest

Location: Pamplona / Noain

Current Time: Feb 12, 2016 at 3:41:48 PM

Latest Report: Feb 12, 2016 at 3:00 PM


Visibility: N/A

Pressure: 29.65 "Hg

Humidity: 88%

Dew point: 50 °F

Location of PamplonaLocation

Historic Weather in Pamplona — Graph

°F

Pamplona Temperature Yesterday

Maximum temperature yesterday: 48 °F (at 1:30 PM)
Minimum temperature yesterday: 41 °F (at 12:00 AM)
Average temperature yesterday: 44 °F

High & Low Weather Summary for the Past Weeks

 TemperatureHumidityPressure
High59 °F (Feb 8, 2:00 PM)100% (Jan 28, 11:00 PM)30.66 "Hg (Jan 28, 11:00 PM)
Low28 °F (Feb 5, 5:30 AM)29% (Feb 5, 4:00 PM)29.62 "Hg (Feb 12, 2:30 PM)
Average46 °F81%30.23 "Hg
* Reported Jan 28 2:00 PM — Feb 12 2:30 PM, Pamplona, Weather by CustomWeather, © 2016

Note: Actual official high and low records may vary slightly from our data, if they occured in-between our weather recording intervals... More about our weather records

Advertising

Pamplona Weather History for the Previous 24 Hours

 ConditionsComfort  
Time TempWeatherWind HumidityBarometerVisibility
2:30 PM
Fri, Feb 12
55 °FLight rain. Partly sunny.6 mph82%29.62 "HgN/A
2:00 PM55 °FPassing clouds.9 mph77%29.65 "HgN/A
1:30 PM55 °FPassing clouds.12 mph77%29.65 "HgN/A
1:00 PM55 °FPartly sunny.9 mph82%29.65 "HgN/A
12:30 PM55 °FPassing clouds.8 mph77%29.65 "HgN/A
12:00 PM55 °FPassing clouds.10 mph77%29.65 "HgN/A
11:30 AM54 °FScattered clouds.8 mph82%29.68 "HgN/A
11:00 AM52 °FBroken clouds.12 mph82%29.68 "HgN/A
10:30 AM52 °FPartly sunny.13 mph82%29.68 "HgN/A
10:00 AM52 °FPassing clouds.15 mph82%29.68 "HgN/A
9:30 AM52 °FScattered clouds.14 mph77%29.68 "HgN/A
9:00 AM50 °FBroken clouds.15 mph82%29.68 "HgN/A
8:30 AM50 °FBroken clouds.15 mph82%29.68 "HgN/A
8:00 AM50 °FPartly cloudy.15 mph82%29.68 "HgN/A
7:30 AM48 °FPassing clouds.13 mph87%29.68 "HgN/A
7:00 AM48 °FPartly cloudy.6 mph87%29.68 "HgN/A
6:30 AM46 °FPartly cloudy.10 mph93%29.68 "HgN/A
6:00 AM46 °FPartly cloudy.9 mph93%29.71 "HgN/A
5:30 AM48 °FRain. Passing clouds.12 mph87%29.71 "HgN/A
12:00 AM43 °FPassing clouds.1 mph93%29.83 "HgN/A
11:00 PM
Thu, Feb 11
43 °FPassing clouds.No wind93%29.86 "HgN/A
10:30 PM43 °FPassing clouds.2 mph93%29.86 "HgN/A
10:00 PM43 °FPassing clouds.1 mph93%29.86 "HgN/A
9:30 PM43 °FPassing clouds.2 mph93%29.86 "HgN/A
9:00 PM45 °FPassing clouds.2 mph87%29.86 "HgN/A
8:30 PM45 °FPassing clouds.1 mph87%29.89 "HgN/A
8:00 PM45 °FPassing clouds.1 mph87%29.89 "HgN/A
7:30 PM45 °FPassing clouds.1 mph87%29.89 "HgN/A
7:00 PM46 °FPassing clouds.No wind82%29.89 "HgN/A
6:30 PM46 °FBroken clouds.1 mph82%29.89 "HgN/A
6:00 PM46 °FPartly sunny.2 mph82%29.86 "HgN/A
5:30 PM46 °FBroken clouds.3 mph82%29.86 "HgN/A
5:00 PM46 °FBroken clouds.7 mph82%29.89 "HgN/A
4:30 PM46 °FBroken clouds.9 mph82%29.86 "HgN/A
4:00 PM48 °FBroken clouds.9 mph76%29.86 "HgN/A
3:30 PM48 °FBroken clouds.8 mph76%29.86 "HgN/A
3:00 PM48 °FBroken clouds.6 mph76%29.86 "HgN/A
Weather by CustomWeather, © 2016

See weather overviewHow to use our weather pages